Time,TemperatureF,DewpointF,PressureIn,WindDirection,WindDirectionDegrees,WindSpeedMPH,WindSpeedGustMPH,Humidity,HourlyPrecipIn,Conditions,Clouds,dailyrainin,SoftwareType,DateUTC
2013-05-15 00:00:00,70.9,44.8,29.88,South,180,9.0,14.0,39,0.00,,,0.00,meteohub,2013-05-15 05:00:00,
2013-05-15 00:05:00,70.7,45.1,29.89,South,180,7.0,13.0,40,0.00,,,0.00,meteohub,2013-05-15 05:05:00,
2013-05-15 00:10:00,70.5,45.0,29.89,South,180,6.0,17.0,40,0.00,,,0.00,meteohub,2013-05-15 05:10:00,
2013-05-15 00:16:00,70.2,44.8,29.89,SW,225,5.0,17.0,40,0.00,,,0.00,meteohub,2013-05-15 05:16:00,
2013-05-15 00:21:00,69.8,45.0,29.90,SSW,203,4.0,11.0,41,0.00,,,0.00,meteohub,2013-05-15 05:21:00,
2013-05-15 00:26:00,69.6,45.5,29.91,SSE,158,8.0,11.0,42,0.00,,,0.00,meteohub,2013-05-15 05:26:00,
2013-05-15 00:31:00,69.3,45.1,29.91,SW,225,8.0,11.0,42,0.00,,,0.00,meteohub,2013-05-15 05:31:00,
2013-05-15 00:36:00,68.9,45.5,29.91,South,180,4.0,11.0,43,0.00,,,0.00,meteohub,2013-05-15 05:36:00,
2013-05-15 00:41:00,68.7,45.3,29.91,SE,135,8.0,11.0,43,0.00,,,0.00,meteohub,2013-05-15 05:41:00,
2013-05-15 00:46:00,68.5,45.7,29.91,SW,225,4.0,9.0,44,0.00,,,0.00,meteohub,2013-05-15 05:46:00,
2013-05-15 00:51:00,68.4,45.7,29.92,South,180,6.0,9.0,44,0.00,,,0.00,meteohub,2013-05-15 05:51:00,
2013-05-15 00:56:00,68.0,45.3,29.93,South,180,7.0,8.0,44,0.00,,,0.00,meteohub,2013-05-15 05:56:00,
2013-05-15 01:01:00,68.0,45.9,29.93,South,180,8.0,11.0,45,0.00,,,0.00,meteohub,2013-05-15 06:01:00,
2013-05-15 01:06:00,68.0,45.9,29.93,South,180,8.0,11.0,45,0.00,,,0.00,meteohub,2013-05-15 06:06:00,
2013-05-15 01:11:00,67.6,46.8,29.94,South,180,3.0,11.0,47,0.00,,,0.00,meteohub,2013-05-15 06:11:00,
2013-05-15 01:16:00,67.3,46.4,29.93,South,180,16.0,16.0,47,0.00,,,0.00,meteohub,2013-05-15 06:16:00,
2013-05-15 01:22:00,66.9,47.1,29.94,South,180,23.0,23.0,49,0.00,,,0.00,meteohub,2013-05-15 06:22:00,
2013-05-15 01:27:00,66.7,46.9,29.94,South,180,15.0,23.0,49,0.00,,,0.00,meteohub,2013-05-15 06:27:00,
2013-05-15 01:32:00,66.4,47.1,29.95,South,180,9.0,23.0,50,0.00,,,0.00,meteohub,2013-05-15 06:32:00,
2013-05-15 01:37:00,66.2,47.5,29.95,SW,225,7.0,23.0,51,0.00,,,0.00,meteohub,2013-05-15 06:37:00,
2013-05-15 01:42:00,65.8,47.7,29.95,SSE,158,6.0,15.0,52,0.00,,,0.00,meteohub,2013-05-15 06:42:00,
2013-05-15 01:47:00,65.7,47.5,29.95,East,90,9.0,13.0,52,0.00,,,0.00,meteohub,2013-05-15 06:47:00,
2013-05-15 01:52:00,65.3,47.3,29.95,South,180,8.0,15.0,52,0.00,,,0.00,meteohub,2013-05-15 06:52:00,
2013-05-15 01:57:00,64.9,47.5,29.96,South,180,5.0,15.0,53,0.00,,,0.00,meteohub,2013-05-15 06:57:00,
2013-05-15 02:02:00,64.8,47.3,29.96,South,180,11.0,15.0,53,0.00,,,0.00,meteohub,2013-05-15 07:02:00,
2013-05-15 02:07:00,64.6,47.1,29.96,South,180,4.0,13.0,53,0.00,,,0.00,meteohub,2013-05-15 07:07:00,
2013-05-15 02:12:00,64.2,46.8,29.97,SE,135,3.0,13.0,53,0.00,,,0.00,meteohub,2013-05-15 07:12:00,
2013-05-15 02:17:00,63.9,46.4,29.97,South,180,8.0,13.0,53,0.00,,,0.00,meteohub,2013-05-15 07:17:00,
2013-05-15 02:22:00,63.7,46.2,29.97,South,180,7.0,18.0,53,0.00,,,0.00,meteohub,2013-05-15 07:22:00,
2013-05-15 02:27:00,63.3,45.9,29.97,SW,225,4.0,18.0,53,0.00,,,0.00,meteohub,2013-05-15 07:27:00,
2013-05-15 02:32:00,63.1,45.7,29.98,SW,225,11.0,18.0,53,0.00,,,0.00,meteohub,2013-05-15 07:32:00,
2013-05-15 02:37:00,63.1,45.7,29.97,East,90,11.0,18.0,53,0.00,,,0.00,meteohub,2013-05-15 07:37:00,
2013-05-15 02:42:00,63.0,45.1,29.97,South,180,9.0,18.0,52,0.00,,,0.00,meteohub,2013-05-15 07:42:00,
2013-05-15 02:47:00,62.8,45.3,29.98,South,180,6.0,18.0,53,0.00,,,0.00,meteohub,2013-05-15 07:47:00,
2013-05-15 02:52:00,62.6,45.1,29.97,SW,225,8.0,14.0,53,0.00,,,0.00,meteohub,2013-05-15 07:52:00,
2013-05-15 02:57:00,62.4,45.5,29.98,South,180,7.0,14.0,54,0.00,,,0.00,meteohub,2013-05-15 07:57:00,
2013-05-15 03:02:00,62.2,45.3,29.98,SW,225,7.0,11.0,54,0.00,,,0.00,meteohub,2013-05-15 08:02:00,
2013-05-15 03:07:00,62.2,45.3,29.99,SW,225,7.0,11.0,54,0.00,,,0.00,meteohub,2013-05-15 08:07:00,
2013-05-15 03:12:00,62.1,45.1,29.99,South,180,7.0,11.0,54,0.00,,,0.00,meteohub,2013-05-15 08:12:00,
2013-05-15 03:17:00,61.9,45.1,29.99,SSW,203,12.0,14.0,54,0.00,,,0.00,meteohub,2013-05-15 08:17:00,
2013-05-15 03:22:00,61.7,45.0,29.99,SW,225,5.0,14.0,54,0.00,,,0.00,meteohub,2013-05-15 08:22:00,
2013-05-15 03:27:00,61.5,45.1,29.99,West,270,8.0,14.0,55,0.00,,,0.00,meteohub,2013-05-15 08:27:00,
2013-05-15 03:32:00,61.3,45.0,30.00,NW,315,11.0,14.0,55,0.00,,,0.00,meteohub,2013-05-15 08:32:00,
2013-05-15 03:37:00,61.2,44.8,30.00,South,180,8.0,14.0,55,0.00,,,0.00,meteohub,2013-05-15 08:37:00,
2013-05-15 03:42:00,61.0,44.8,30.00,SSW,203,10.0,13.0,55,0.00,,,0.00,meteohub,2013-05-15 08:42:00,
2013-05-15 03:47:00,60.8,45.0,30.01,SSW,203,5.0,12.0,56,0.00,,,0.00,meteohub,2013-05-15 08:47:00,
2013-05-15 03:52:00,60.6,45.3,30.01,West,270,6.0,12.0,57,0.00,,,0.00,meteohub,2013-05-15 08:52:00,
2013-05-15 03:57:00,60.4,45.1,30.01,South,180,4.0,11.0,57,0.00,,,0.00,meteohub,2013-05-15 08:57:00,
2013-05-15 04:02:00,60.3,45.5,30.01,SSE,158,5.0,9.0,58,0.00,,,0.00,meteohub,2013-05-15 09:02:00,
2013-05-15 04:07:00,60.3,45.5,30.02,South,180,6.0,9.0,58,0.00,,,0.00,meteohub,2013-05-15 09:07:00,
2013-05-15 04:12:00,60.1,45.3,30.02,South,180,5.0,10.0,58,0.00,,,0.00,meteohub,2013-05-15 09:12:00,
2013-05-15 04:17:00,59.9,45.5,30.02,SW,225,2.0,10.0,59,0.00,,,0.00,meteohub,2013-05-15 09:17:00,
2013-05-15 04:22:00,59.7,45.3,30.02,South,180,2.0,10.0,59,0.00,,,0.00,meteohub,2013-05-15 09:22:00,
2013-05-15 04:27:00,59.5,45.7,30.02,South,180,3.0,6.0,60,0.00,,,0.00,meteohub,2013-05-15 09:27:00,
2013-05-15 04:32:00,59.2,45.3,30.02,South,180,4.0,8.0,60,0.00,,,0.00,meteohub,2013-05-15 09:32:00,
2013-05-15 04:37:00,59.2,45.3,30.02,SW,225,2.0,8.0,60,0.00,,,0.00,meteohub,2013-05-15 09:37:00,
2013-05-15 04:42:00,58.8,45.3,30.02,South,180,3.0,7.0,61,0.00,,,0.00,meteohub,2013-05-15 09:42:00,
2013-05-15 04:47:00,58.6,45.3,30.03,South,180,2.0,4.0,61,0.00,,,0.00,meteohub,2013-05-15 09:47:00,
2013-05-15 04:52:00,58.5,45.5,30.03,South,180,4.0,6.0,62,0.00,,,0.00,meteohub,2013-05-15 09:52:00,
2013-05-15 04:57:00,58.5,45.5,30.03,SE,135,2.0,6.0,62,0.00,,,0.00,meteohub,2013-05-15 09:57:00,
2013-05-15 05:02:00,58.3,45.3,30.03,SE,135,2.0,6.0,62,0.00,,,0.00,meteohub,2013-05-15 10:02:00,
2013-05-15 05:07:00,58.3,45.3,30.03,SE,135,2.0,4.0,62,0.00,,,0.00,meteohub,2013-05-15 10:07:00,
2013-05-15 05:12:00,57.9,45.0,30.03,South,180,2.0,3.0,62,0.00,,,0.00,meteohub,2013-05-15 10:12:00,
2013-05-15 05:17:00,57.7,45.3,30.04,SE,135,2.0,2.0,63,0.00,,,0.00,meteohub,2013-05-15 10:17:00,
2013-05-15 05:22:00,57.6,44.6,30.04,SE,135,2.0,2.0,62,0.00,,,0.00,meteohub,2013-05-15 10:22:00,
2013-05-15 05:27:00,57.2,44.8,30.05,East,90,2.0,3.0,63,0.00,,,0.00,meteohub,2013-05-15 10:27:00,
2013-05-15 05:32:00,57.2,44.8,30.04,South,180,2.0,4.0,63,0.00,,,0.00,meteohub,2013-05-15 10:32:00,
2013-05-15 05:37:00,56.8,44.8,30.05,SE,135,1.0,4.0,64,0.00,,,0.00,meteohub,2013-05-15 10:37:00,
2013-05-15 05:42:00,56.7,44.6,30.05,SE,135,2.0,4.0,64,0.00,,,0.00,meteohub,2013-05-15 10:42:00,
2013-05-15 05:47:00,56.3,44.2,30.05,SE,135,2.0,3.0,64,0.00,,,0.00,meteohub,2013-05-15 10:47:00,
2013-05-15 05:52:00,56.3,44.6,30.06,SE,135,2.0,2.0,65,0.00,,,0.00,meteohub,2013-05-15 10:52:00,
2013-05-15 05:57:00,55.9,44.4,30.07,SE,135,2.0,2.0,65,0.00,,,0.00,meteohub,2013-05-15 10:57:00,
2013-05-15 06:02:00,55.8,44.6,30.07,SE,135,2.0,2.0,66,0.00,,,0.00,meteohub,2013-05-15 11:02:00,
2013-05-15 06:07:00,55.6,44.4,30.08,ESE,113,2.0,2.0,66,0.00,,,0.00,meteohub,2013-05-15 11:07:00,
2013-05-15 06:12:00,55.8,44.6,30.08,SE,135,2.0,3.0,66,0.00,,,0.00,meteohub,2013-05-15 11:12:00,
2013-05-15 06:17:00,55.8,44.6,30.08,ESE,113,3.0,4.0,66,0.00,,,0.00,meteohub,2013-05-15 11:17:00,
2013-05-15 06:23:00,55.9,45.1,30.08,SE,135,2.0,4.0,67,0.00,,,0.00,meteohub,2013-05-15 11:23:00,
2013-05-15 06:29:00,55.9,45.1,30.09,SE,135,2.0,4.0,67,0.00,,,0.00,meteohub,2013-05-15 11:29:00,
2013-05-15 06:35:00,56.1,45.3,30.09,SE,135,4.0,4.0,67,0.00,,,0.00,meteohub,2013-05-15 11:35:00,
2013-05-15 06:41:00,56.7,45.9,30.10,SE,135,5.0,5.0,67,0.00,,,0.00,meteohub,2013-05-15 11:41:00,
2013-05-15 06:46:00,56.8,45.7,30.11,SE,135,2.0,5.0,66,0.00,,,0.00,meteohub,2013-05-15 11:46:00,
2013-05-15 06:51:00,57.2,45.5,30.10,West,270,3.0,5.0,65,0.00,,,0.00,meteohub,2013-05-15 11:51:00,
2013-05-15 06:57:00,57.7,46.0,30.10,South,180,2.0,6.0,65,0.00,,,0.00,meteohub,2013-05-15 11:57:00,
2013-05-15 07:02:00,58.1,46.0,30.10,SSE,158,4.0,6.0,64,0.00,,,0.00,meteohub,2013-05-15 12:02:00,
2013-05-15 07:07:00,58.1,46.0,30.10,SSE,158,4.0,5.0,64,0.00,,,0.00,meteohub,2013-05-15 12:07:00,
2013-05-15 07:12:00,58.5,45.9,30.10,South,180,3.0,5.0,63,0.00,,,0.00,meteohub,2013-05-15 12:12:00,
2013-05-15 07:17:00,59.0,46.0,30.11,East,90,4.0,5.0,62,0.00,,,0.00,meteohub,2013-05-15 12:17:00,
2013-05-15 07:22:00,59.4,46.4,30.11,South,180,3.0,5.0,62,0.00,,,0.00,meteohub,2013-05-15 12:22:00,
2013-05-15 07:27:00,59.7,46.8,30.11,South,180,6.0,6.0,62,0.00,,,0.00,meteohub,2013-05-15 12:27:00,
2013-05-15 07:32:00,60.1,46.6,30.11,East,90,4.0,8.0,61,0.00,,,0.00,meteohub,2013-05-15 12:32:00,
2013-05-15 07:37:00,60.3,46.8,30.12,South,180,3.0,8.0,61,0.00,,,0.00,meteohub,2013-05-15 12:37:00,
2013-05-15 07:42:00,60.4,46.9,30.12,East,90,3.0,8.0,61,0.00,,,0.00,meteohub,2013-05-15 12:42:00,
2013-05-15 07:47:00,61.0,46.9,30.12,South,180,2.0,7.0,60,0.00,,,0.00,meteohub,2013-05-15 12:47:00,
2013-05-15 07:52:00,61.5,47.1,30.12,South,180,4.0,4.0,59,0.00,,,0.00,meteohub,2013-05-15 12:52:00,
2013-05-15 07:57:00,61.9,47.5,30.13,SE,135,2.0,4.0,59,0.00,,,0.00,meteohub,2013-05-15 12:57:00,
2013-05-15 08:02:00,62.1,47.1,30.13,South,180,4.0,5.0,58,0.00,,,0.00,meteohub,2013-05-15 13:02:00,
2013-05-15 08:07:00,62.1,47.1,30.13,SW,225,2.0,5.0,58,0.00,,,0.00,meteohub,2013-05-15 13:07:00,
2013-05-15 08:12:00,62.6,46.8,30.12,SW,225,4.0,5.0,56,0.00,,,0.00,meteohub,2013-05-15 13:12:00,
2013-05-15 08:17:00,62.8,46.4,30.13,SW,225,3.0,5.0,55,0.00,,,0.00,meteohub,2013-05-15 13:17:00,
2013-05-15 08:22:00,63.0,46.6,30.13,South,180,2.0,5.0,55,0.00,,,0.00,meteohub,2013-05-15 13:22:00,
2013-05-15 08:27:00,63.1,46.2,30.13,SW,225,4.0,5.0,54,0.00,,,0.00,meteohub,2013-05-15 13:27:00,
2013-05-15 08:32:00,63.0,45.5,30.12,SE,135,4.0,7.0,53,0.00,,,0.00,meteohub,2013-05-15 13:32:00,
2013-05-15 08:37:00,62.6,45.1,30.12,South,180,3.0,7.0,53,0.00,,,0.00,meteohub,2013-05-15 13:37:00,
2013-05-15 08:43:00,62.4,46.0,30.12,South,180,4.0,7.0,55,0.00,,,0.00,meteohub,2013-05-15 13:43:00,
2013-05-15 08:48:00,62.4,46.6,30.13,SE,135,4.0,7.0,56,0.00,,,0.00,meteohub,2013-05-15 13:48:00,
2013-05-15 08:53:00,62.4,46.6,30.13,SW,225,2.0,7.0,56,0.00,,,0.00,meteohub,2013-05-15 13:53:00,
2013-05-15 08:59:00,62.4,46.6,30.13,South,180,5.0,7.0,56,0.00,,,0.00,meteohub,2013-05-15 13:59:00,
2013-05-15 09:04:00,62.4,46.6,30.12,South,180,6.0,6.0,56,0.00,,,0.00,meteohub,2013-05-15 14:04:00,
2013-05-15 09:09:00,62.2,46.4,30.12,South,180,1.0,6.0,56,0.00,,,0.00,meteohub,2013-05-15 14:09:00,
2013-05-15 09:14:00,62.2,46.8,30.12,SW,225,2.0,6.0,57,0.00,,,0.00,meteohub,2013-05-15 14:14:00,
2013-05-15 09:20:00,62.2,46.8,30.12,SW,225,3.0,6.0,57,0.00,,,0.00,meteohub,2013-05-15 14:20:00,
2013-05-15 09:25:00,62.2,46.4,30.11,South,180,2.0,5.0,56,0.00,,,0.00,meteohub,2013-05-15 14:25:00,
2013-05-15 09:30:00,62.2,46.8,30.12,SE,135,1.0,5.0,57,0.00,,,0.00,meteohub,2013-05-15 14:30:00,
2013-05-15 09:36:00,62.2,46.8,30.12,NE,45,1.0,4.0,57,0.00,,,0.00,meteohub,2013-05-15 14:36:00,
2013-05-15 09:41:00,62.2,46.4,30.11,SW,225,2.0,2.0,56,0.00,,,0.00,meteohub,2013-05-15 14:41:00,
2013-05-15 09:46:00,62.1,46.6,30.11,West,270,2.0,2.0,57,0.00,,,0.00,meteohub,2013-05-15 14:46:00,
2013-05-15 09:51:00,61.9,46.9,30.11,NW,315,2.0,2.0,58,0.00,,,0.00,meteohub,2013-05-15 14:51:00,
2013-05-15 09:57:00,61.9,46.9,30.10,NW,315,2.0,2.0,58,0.00,,,0.00,meteohub,2013-05-15 14:57:00,
2013-05-15 10:02:00,62.1,47.1,30.11,West,270,1.0,3.0,58,0.00,,,0.00,meteohub,2013-05-15 15:02:00,
2013-05-15 10:07:00,62.1,46.6,30.10,NW,315,2.0,3.0,57,0.00,,,0.00,meteohub,2013-05-15 15:07:00,
2013-05-15 10:12:00,62.1,46.6,30.10,South,180,2.0,3.0,57,0.00,,,0.00,meteohub,2013-05-15 15:12:00,
2013-05-15 10:17:00,62.2,46.8,30.11,SW,225,3.0,3.0,57,0.00,,,0.00,meteohub,2013-05-15 15:17:00,
2013-05-15 10:22:00,62.4,46.9,30.11,West,270,2.0,4.0,57,0.00,,,0.00,meteohub,2013-05-15 15:22:00,
2013-05-15 10:27:00,62.6,46.8,30.10,West,270,1.0,4.0,56,0.00,,,0.00,meteohub,2013-05-15 15:27:00,
2013-05-15 10:32:00,62.8,46.4,30.11,West,270,2.0,4.0,55,0.00,,,0.00,meteohub,2013-05-15 15:32:00,
2013-05-15 10:37:00,62.8,46.4,30.11,SW,225,2.0,3.0,55,0.00,,,0.00,meteohub,2013-05-15 15:37:00,
2013-05-15 10:42:00,63.1,46.8,30.10,NW,315,2.0,2.0,55,0.00,,,0.00,meteohub,2013-05-15 15:42:00,
2013-05-15 10:47:00,63.3,46.4,30.11,SW,225,2.0,2.0,54,0.00,,,0.00,meteohub,2013-05-15 15:47:00,
2013-05-15 10:53:00,63.7,46.2,30.11,SW,225,1.0,2.0,53,0.00,,,0.00,meteohub,2013-05-15 15:53:00,
2013-05-15 10:59:00,64.0,46.6,30.11,West,270,1.0,2.0,53,0.00,,,0.00,meteohub,2013-05-15 15:59:00,
2013-05-15 11:05:00,64.0,46.0,30.11,North,0,3.0,3.0,52,0.00,,,0.00,meteohub,2013-05-15 16:05:00,
2013-05-15 11:10:00,64.8,47.3,30.12,East,90,3.0,3.0,53,0.00,,,0.00,meteohub,2013-05-15 16:10:00,
2013-05-15 11:16:00,64.9,46.9,30.12,South,180,2.0,4.0,52,0.00,,,0.00,meteohub,2013-05-15 16:16:00,
2013-05-15 11:21:00,65.1,47.1,30.12,SE,135,5.0,5.0,52,0.00,,,0.00,meteohub,2013-05-15 16:21:00,
2013-05-15 11:26:00,65.3,47.3,30.12,NE,45,3.0,5.0,52,0.00,,,0.00,meteohub,2013-05-15 16:26:00,
2013-05-15 11:31:00,65.5,47.5,30.12,NE,45,6.0,6.0,52,0.00,,,0.00,meteohub,2013-05-15 16:31:00,
2013-05-15 11:36:00,65.5,47.5,30.12,East,90,3.0,6.0,52,0.00,,,0.00,meteohub,2013-05-15 16:36:00,
2013-05-15 11:42:00,66.6,46.2,30.12,ENE,68,7.0,7.0,48,0.00,,,0.00,meteohub,2013-05-15 16:42:00,
2013-05-15 11:47:00,66.6,45.1,30.12,SE,135,5.0,7.0,46,0.00,,,0.00,meteohub,2013-05-15 16:47:00,
2013-05-15 11:52:00,66.7,45.9,30.12,East,90,8.0,8.0,47,0.00,,,0.00,meteohub,2013-05-15 16:52:00,
2013-05-15 11:58:00,67.5,46.0,30.12,East,90,5.0,8.0,46,0.00,,,0.00,meteohub,2013-05-15 16:58:00,
2013-05-15 12:04:00,68.2,44.8,30.12,NE,45,6.0,9.0,43,0.00,,,0.00,meteohub,2013-05-15 17:04:00,
2013-05-15 12:09:00,68.2,46.0,30.11,East,90,6.0,11.0,45,0.00,,,0.00,meteohub,2013-05-15 17:09:00,
2013-05-15 12:15:00,68.5,46.9,30.11,East,90,6.0,11.0,46,0.00,,,0.00,meteohub,2013-05-15 17:15:00,
2013-05-15 12:20:00,68.7,45.3,30.11,NE,45,7.0,11.0,43,0.00,,,0.00,meteohub,2013-05-15 17:20:00,
2013-05-15 12:26:00,68.2,44.2,30.11,ESE,113,5.0,11.0,42,0.00,,,0.00,meteohub,2013-05-15 17:26:00,
2013-05-15 12:32:00,68.0,44.6,30.11,SE,135,8.0,11.0,43,0.00,,,0.00,meteohub,2013-05-15 17:32:00,
2013-05-15 12:37:00,68.5,45.7,30.10,NE,45,8.0,11.0,44,0.00,,,0.00,meteohub,2013-05-15 17:37:00,
2013-05-15 12:42:00,69.3,46.9,30.10,NE,45,12.0,12.0,45,0.00,,,0.00,meteohub,2013-05-15 17:42:00,
2013-05-15 12:48:00,69.1,46.2,30.10,SE,135,14.0,14.0,44,0.00,,,0.00,meteohub,2013-05-15 17:48:00,
2013-05-15 12:54:00,69.4,46.6,30.10,NE,45,4.0,15.0,44,0.00,,,0.00,meteohub,2013-05-15 17:54:00,
2013-05-15 12:59:00,70.0,45.9,30.10,North,0,8.0,15.0,42,0.00,,,0.00,meteohub,2013-05-15 17:59:00,
2013-05-15 13:04:00,70.0,45.9,30.09,ENE,68,11.0,14.0,42,0.00,,,0.00,meteohub,2013-05-15 18:04:00,
2013-05-15 13:09:00,70.0,44.6,30.09,East,90,7.0,11.0,40,0.00,,,0.00,meteohub,2013-05-15 18:09:00,
2013-05-15 13:15:00,70.3,44.2,30.09,East,90,6.0,13.0,39,0.00,,,0.00,meteohub,2013-05-15 18:15:00,
2013-05-15 13:20:00,70.3,44.2,30.09,East,90,8.0,13.0,39,0.00,,,0.00,meteohub,2013-05-15 18:20:00,
2013-05-15 13:25:00,71.1,45.5,30.09,NE,45,11.0,14.0,40,0.00,,,0.00,meteohub,2013-05-15 18:25:00,
2013-05-15 13:30:00,71.1,44.8,30.09,SE,135,7.0,12.0,39,0.00,,,0.00,meteohub,2013-05-15 18:30:00,
2013-05-15 13:36:00,71.6,45.3,30.09,ENE,68,11.0,12.0,39,0.00,,,0.00,meteohub,2013-05-15 18:36:00,
2013-05-15 13:41:00,71.6,44.6,30.08,ENE,68,13.0,13.0,38,0.00,,,0.00,meteohub,2013-05-15 18:41:00,
2013-05-15 13:46:00,71.8,46.2,30.08,ENE,68,8.0,15.0,40,0.00,,,0.00,meteohub,2013-05-15 18:46:00,
2013-05-15 13:51:00,71.8,45.5,30.09,East,90,7.0,52.0,39,0.00,,,0.00,meteohub,2013-05-15 18:51:00,
2013-05-15 13:57:00,72.7,46.2,30.08,East,90,14.0,52.0,39,0.00,,,0.00,meteohub,2013-05-15 18:57:00,
2013-05-15 14:02:00,72.7,46.2,30.08,North,0,16.0,52.0,39,0.00,,,0.00,meteohub,2013-05-15 19:02:00,
2013-05-15 14:08:00,72.7,46.2,30.08,South,180,6.0,16.0,39,0.00,,,0.00,meteohub,2013-05-15 19:08:00,
2013-05-15 14:13:00,73.0,45.9,30.07,NE,45,14.0,16.0,38,0.00,,,0.00,meteohub,2013-05-15 19:13:00,
2013-05-15 14:18:00,72.1,45.1,30.07,East,90,11.0,16.0,38,0.00,,,0.00,meteohub,2013-05-15 19:18:00,
2013-05-15 14:23:00,72.7,45.7,30.07,East,90,7.0,17.0,38,0.00,,,0.00,meteohub,2013-05-15 19:23:00,
2013-05-15 14:29:00,73.2,45.3,30.07,SE,135,13.0,17.0,37,0.00,,,0.00,meteohub,2013-05-15 19:29:00,
2013-05-15 14:34:00,73.4,44.1,30.06,East,90,10.0,17.0,35,0.00,,,0.00,meteohub,2013-05-15 19:34:00,
2013-05-15 14:41:00,73.6,45.0,30.07,ESE,113,8.0,15.0,36,0.00,,,0.00,meteohub,2013-05-15 19:41:00,
2013-05-15 14:46:00,75.0,45.5,30.06,ESE,113,11.0,13.0,35,0.00,,,0.00,meteohub,2013-05-15 19:46:00,
2013-05-15 14:52:00,74.7,44.4,30.06,SE,135,8.0,15.0,34,0.00,,,0.00,meteohub,2013-05-15 19:52:00,
2013-05-15 14:57:00,74.7,44.4,30.06,East,90,6.0,15.0,34,0.00,,,0.00,meteohub,2013-05-15 19:57:00,
2013-05-15 15:02:00,75.0,45.5,30.06,NE,45,5.0,15.0,35,0.00,,,0.00,meteohub,2013-05-15 20:02:00,
2013-05-15 15:07:00,75.0,45.5,30.06,NE,45,5.0,11.0,35,0.00,,,0.00,meteohub,2013-05-15 20:07:00,
2013-05-15 15:12:00,75.2,43.3,30.05,SE,135,8.0,14.0,32,0.00,,,0.00,meteohub,2013-05-15 20:12:00,
2013-05-15 15:17:00,75.6,43.7,30.05,SE,135,8.0,14.0,32,0.00,,,0.00,meteohub,2013-05-15 20:17:00,
2013-05-15 15:22:00,75.6,42.8,30.06,SE,135,6.0,14.0,31,0.00,,,0.00,meteohub,2013-05-15 20:22:00,
2013-05-15 15:27:00,76.1,43.3,30.06,East,90,8.0,12.0,31,0.00,,,0.00,meteohub,2013-05-15 20:27:00,
2013-05-15 15:32:00,75.9,43.2,30.05,North,0,14.0,14.0,31,0.00,,,0.00,meteohub,2013-05-15 20:32:00,
2013-05-15 15:37:00,76.6,42.1,30.05,East,90,14.0,15.0,29,0.00,,,0.00,meteohub,2013-05-15 20:37:00,
2013-05-15 15:42:00,76.3,41.7,30.05,ESE,113,8.0,17.0,29,0.00,,,0.00,meteohub,2013-05-15 20:42:00,
2013-05-15 15:48:00,76.5,41.9,30.05,East,90,11.0,17.0,29,0.00,,,0.00,meteohub,2013-05-15 20:48:00,
2013-05-15 15:53:00,76.8,42.1,30.04,East,90,11.0,17.0,29,0.00,,,0.00,meteohub,2013-05-15 20:53:00,
2013-05-15 15:59:00,77.0,40.5,30.04,SE,135,11.0,12.0,27,0.00,,,0.00,meteohub,2013-05-15 20:59:00,
2013-05-15 16:04:00,76.6,41.2,30.04,SE,135,9.0,12.0,28,0.00,,,0.00,meteohub,2013-05-15 21:04:00,
2013-05-15 16:10:00,77.5,41.0,30.04,SE,135,8.0,15.0,27,0.00,,,0.00,meteohub,2013-05-15 21:10:00,
2013-05-15 16:15:00,77.7,40.1,30.04,North,0,7.0,15.0,26,0.00,,,0.00,meteohub,2013-05-15 21:15:00,
2013-05-15 16:20:00,77.7,40.1,30.03,NE,45,11.0,12.0,26,0.00,,,0.00,meteohub,2013-05-15 21:20:00,
2013-05-15 16:25:00,77.5,39.9,30.03,SE,135,10.0,12.0,26,0.00,,,0.00,meteohub,2013-05-15 21:25:00,
2013-05-15 16:30:00,77.7,40.1,30.03,ESE,113,8.0,13.0,26,0.00,,,0.00,meteohub,2013-05-15 21:30:00,
2013-05-15 16:36:00,78.3,41.5,30.03,SE,135,4.0,13.0,27,0.00,,,0.00,meteohub,2013-05-15 21:36:00,
2013-05-15 16:41:00,78.6,40.8,30.03,NE,45,11.0,11.0,26,0.00,,,0.00,meteohub,2013-05-15 21:41:00,
2013-05-15 16:46:00,78.6,42.8,30.02,NW,315,5.0,11.0,28,0.00,,,0.00,meteohub,2013-05-15 21:46:00,
2013-05-15 16:51:00,78.6,41.9,30.03,SE,135,8.0,11.0,27,0.00,,,0.00,meteohub,2013-05-15 21:51:00,
2013-05-15 16:56:00,78.4,41.7,30.02,East,90,6.0,14.0,27,0.00,,,0.00,meteohub,2013-05-15 21:56:00,
2013-05-15 17:02:00,78.4,41.7,30.02,NE,45,11.0,14.0,27,0.00,,,0.00,meteohub,2013-05-15 22:02:00,
2013-05-15 17:07:00,78.4,41.7,30.02,NE,45,11.0,14.0,27,0.00,,,0.00,meteohub,2013-05-15 22:07:00,
2013-05-15 17:12:00,78.6,41.9,30.01,East,90,7.0,15.0,27,0.00,,,0.00,meteohub,2013-05-15 22:12:00,
2013-05-15 17:17:00,79.0,42.1,30.02,NW,315,12.0,15.0,27,0.00,,,0.00,meteohub,2013-05-15 22:17:00,
2013-05-15 17:22:00,79.3,42.4,30.02,East,90,8.0,15.0,27,0.00,,,0.00,meteohub,2013-05-15 22:22:00,
2013-05-15 17:28:00,79.5,42.6,30.01,NE,45,6.0,12.0,27,0.00,,,0.00,meteohub,2013-05-15 22:28:00,
2013-05-15 17:33:00,79.5,42.6,30.02,East,90,8.0,12.0,27,0.00,,,0.00,meteohub,2013-05-15 22:33:00,
2013-05-15 17:39:00,79.5,43.5,30.02,SE,135,16.0,16.0,28,0.00,,,0.00,meteohub,2013-05-15 22:39:00,
2013-05-15 17:44:00,79.0,44.1,30.02,ENE,68,4.0,12.0,29,0.00,,,0.00,meteohub,2013-05-15 22:44:00,
2013-05-15 17:49:00,79.0,44.1,30.01,SE,135,11.0,16.0,29,0.00,,,0.00,meteohub,2013-05-15 22:49:00,
2013-05-15 17:55:00,78.8,43.9,30.01,East,90,7.0,14.0,29,0.00,,,0.00,meteohub,2013-05-15 22:55:00,
2013-05-15 18:00:00,78.1,45.0,30.01,SE,135,8.0,14.0,31,0.00,,,0.00,meteohub,2013-05-15 23:00:00,
2013-05-15 18:05:00,78.1,45.0,30.01,South,180,9.0,14.0,31,0.00,,,0.00,meteohub,2013-05-15 23:05:00,
2013-05-15 18:11:00,77.9,44.8,30.01,East,90,5.0,12.0,31,0.00,,,0.00,meteohub,2013-05-15 23:11:00,
2013-05-15 18:17:00,77.4,44.4,30.01,East,90,8.0,11.0,31,0.00,,,0.00,meteohub,2013-05-15 23:17:00,
2013-05-15 18:22:00,77.2,44.2,30.01,ESE,113,8.0,11.0,31,0.00,,,0.00,meteohub,2013-05-15 23:22:00,
2013-05-15 18:27:00,77.0,45.0,30.01,ESE,113,14.0,14.0,32,0.00,,,0.00,meteohub,2013-05-15 23:27:00,
2013-05-15 18:32:00,77.0,45.0,30.01,East,90,5.0,14.0,32,0.00,,,0.00,meteohub,2013-05-15 23:32:00,
2013-05-15 18:37:00,77.0,45.0,30.01,East,90,12.0,15.0,32,0.00,,,0.00,meteohub,2013-05-15 23:37:00,
2013-05-15 18:42:00,76.8,46.4,30.01,East,90,7.0,15.0,34,0.00,,,0.00,meteohub,2013-05-15 23:42:00,
2013-05-15 18:47:00,76.8,46.4,30.01,East,90,10.0,15.0,34,0.00,,,0.00,meteohub,2013-05-15 23:47:00,
2013-05-15 18:52:00,77.0,45.7,30.01,NE,45,11.0,14.0,33,0.00,,,0.00,meteohub,2013-05-15 23:52:00,
2013-05-15 18:57:00,77.2,45.9,30.01,East,90,9.0,14.0,33,0.00,,,0.00,meteohub,2013-05-15 23:57:00,
2013-05-15 19:02:00,77.2,45.9,30.01,East,90,9.0,11.0,33,0.00,,,0.00,meteohub,2013-05-16 00:02:00,
2013-05-15 19:08:00,77.5,46.2,30.01,East,90,12.0,12.0,33,0.00,,,0.00,meteohub,2013-05-16 00:08:00,
2013-05-15 19:13:00,77.5,46.2,30.01,SE,135,11.0,13.0,33,0.00,,,0.00,meteohub,2013-05-16 00:13:00,
2013-05-15 19:18:00,77.4,46.0,30.00,East,90,10.0,13.0,33,0.00,,,0.00,meteohub,2013-05-16 00:18:00,
2013-05-15 19:24:00,77.4,46.0,30.01,ENE,68,8.0,15.0,33,0.00,,,0.00,meteohub,2013-05-16 00:24:00,
2013-05-15 19:29:00,77.2,46.6,30.01,SE,135,5.0,15.0,34,0.00,,,0.00,meteohub,2013-05-16 00:29:00,
2013-05-15 19:34:00,77.2,46.6,30.01,SE,135,10.0,15.0,34,0.00,,,0.00,meteohub,2013-05-16 00:34:00,
2013-05-15 19:39:00,77.0,46.4,30.01,SSE,158,11.0,11.0,34,0.00,,,0.00,meteohub,2013-05-16 00:39:00,
2013-05-15 19:45:00,76.8,47.1,30.01,ESE,113,5.0,11.0,35,0.00,,,0.00,meteohub,2013-05-16 00:45:00,
2013-05-15 19:51:00,76.6,47.7,30.01,East,90,4.0,11.0,36,0.00,,,0.00,meteohub,2013-05-16 00:51:00,
2013-05-15 19:57:00,76.5,47.5,30.01,East,90,9.0,11.0,36,0.00,,,0.00,meteohub,2013-05-16 00:57:00,
2013-05-15 20:02:00,76.3,47.3,30.01,ESE,113,4.0,11.0,36,0.00,,,0.00,meteohub,2013-05-16 01:02:00,
2013-05-15 20:07:00,76.1,48.0,30.01,NE,45,3.0,11.0,37,0.00,,,0.00,meteohub,2013-05-16 01:07:00,
2013-05-15 20:12:00,75.7,47.7,30.01,SE,135,5.0,9.0,37,0.00,,,0.00,meteohub,2013-05-16 01:12:00,
2013-05-15 20:17:00,75.4,48.0,30.01,ESE,113,3.0,6.0,38,0.00,,,0.00,meteohub,2013-05-16 01:17:00,
2013-05-15 20:23:00,75.2,48.6,30.01,East,90,7.0,7.0,39,0.00,,,0.00,meteohub,2013-05-16 01:23:00,
2013-05-15 20:28:00,75.2,48.6,30.01,NE,45,4.0,7.0,39,0.00,,,0.00,meteohub,2013-05-16 01:28:00,
2013-05-15 20:34:00,74.8,49.6,30.01,NE,45,7.0,7.0,41,0.00,,,0.00,meteohub,2013-05-16 01:34:00,
2013-05-15 20:40:00,74.7,49.5,30.01,NE,45,4.0,7.0,41,0.00,,,0.00,meteohub,2013-05-16 01:40:00,
2013-05-15 20:45:00,74.3,49.6,30.01,NE,45,4.0,8.0,42,0.00,,,0.00,meteohub,2013-05-16 01:45:00,
2013-05-15 20:50:00,73.9,49.5,30.01,East,90,8.0,8.0,42,0.00,,,0.00,meteohub,2013-05-16 01:50:00,
2013-05-15 20:55:00,73.8,49.3,30.01,ESE,113,4.0,8.0,42,0.00,,,0.00,meteohub,2013-05-16 01:55:00,
2013-05-15 21:01:00,73.4,48.9,30.01,East,90,8.0,8.0,42,0.00,,,0.00,meteohub,2013-05-16 02:01:00,
2013-05-15 21:07:00,73.4,48.9,30.01,East,90,8.0,8.0,42,0.00,,,0.00,meteohub,2013-05-16 02:07:00,
2013-05-15 21:12:00,72.7,47.7,30.01,NE,45,6.0,8.0,41,0.00,,,0.00,meteohub,2013-05-16 02:12:00,
2013-05-15 21:17:00,72.5,47.5,30.02,NE,45,6.0,8.0,41,0.00,,,0.00,meteohub,2013-05-16 02:17:00,
2013-05-15 21:22:00,72.1,47.1,30.02,East,90,6.0,8.0,41,0.00,,,0.00,meteohub,2013-05-16 02:22:00,
2013-05-15 21:27:00,72.0,47.7,30.02,NE,45,6.0,8.0,42,0.00,,,0.00,meteohub,2013-05-16 02:27:00,
2013-05-15 21:32:00,71.8,47.5,30.02,East,90,3.0,8.0,42,0.00,,,0.00,meteohub,2013-05-16 02:32:00,
2013-05-15 21:37:00,71.6,47.3,30.03,East,90,3.0,8.0,42,0.00,,,0.00,meteohub,2013-05-16 02:37:00,
2013-05-15 21:42:00,71.4,47.8,30.03,NE,45,5.0,7.0,43,0.00,,,0.00,meteohub,2013-05-16 02:42:00,
2013-05-15 21:47:00,71.1,48.0,30.03,East,90,3.0,7.0,44,0.00,,,0.00,meteohub,2013-05-16 02:47:00,
2013-05-15 21:52:00,70.9,47.8,30.03,SE,135,5.0,6.0,44,0.00,,,0.00,meteohub,2013-05-16 02:52:00,
2013-05-15 21:57:00,70.7,47.7,30.03,East,90,6.0,6.0,44,0.00,,,0.00,meteohub,2013-05-16 02:57:00,
2013-05-15 22:02:00,70.7,47.7,30.03,SE,135,4.0,8.0,44,0.00,,,0.00,meteohub,2013-05-16 03:02:00,
2013-05-15 22:07:00,70.5,47.5,30.03,SE,135,4.0,8.0,44,0.00,,,0.00,meteohub,2013-05-16 03:07:00,
2013-05-15 22:12:00,70.2,47.8,30.03,SE,135,3.0,8.0,45,0.00,,,0.00,meteohub,2013-05-16 03:12:00,
2013-05-15 22:17:00,70.0,47.7,30.03,East,90,4.0,5.0,45,0.00,,,0.00,meteohub,2013-05-16 03:17:00,
2013-05-15 22:22:00,69.8,47.5,30.03,East,90,4.0,5.0,45,0.00,,,0.00,meteohub,2013-05-16 03:22:00,
2013-05-15 22:28:00,69.6,48.6,30.03,SSE,158,7.0,7.0,47,0.00,,,0.00,meteohub,2013-05-16 03:28:00,
2013-05-15 22:33:00,69.4,48.4,30.04,NE,45,8.0,8.0,47,0.00,,,0.00,meteohub,2013-05-16 03:33:00,
2013-05-15 22:38:00,69.4,48.4,30.03,SE,135,5.0,8.0,47,0.00,,,0.00,meteohub,2013-05-16 03:38:00,
2013-05-15 22:43:00,69.3,48.2,30.03,NE,45,4.0,8.0,47,0.00,,,0.00,meteohub,2013-05-16 03:43:00,
2013-05-15 22:49:00,69.3,48.2,30.04,ENE,68,6.0,8.0,47,0.00,,,0.00,meteohub,2013-05-16 03:49:00,
2013-05-15 22:54:00,69.3,48.2,30.04,NE,45,4.0,8.0,47,0.00,,,0.00,meteohub,2013-05-16 03:54:00,
2013-05-15 22:59:00,69.1,48.0,30.03,East,90,6.0,9.0,47,0.00,,,0.00,meteohub,2013-05-16 03:59:00,
2013-05-15 23:01:00,68.9,47.8,30.04,SE,135,4.0,9.0,47,0.00,,,0.00,meteohub,2013-05-16 04:01:00,
2013-05-15 23:02:00,68.9,47.8,30.04,SE,135,4.0,9.0,47,0.00,,,0.00,meteohub,2013-05-16 04:02:00,
2013-05-15 23:03:00,68.9,47.8,30.04,SE,135,4.0,9.0,47,0.00,,,0.00,meteohub,2013-05-16 04:03:00,
2013-05-15 23:08:00,68.5,47.5,30.03,NE,45,4.0,9.0,47,0.00,,,0.00,meteohub,2013-05-16 04:08:00,
2013-05-15 23:13:00,68.5,48.0,30.04,NE,45,5.0,7.0,48,0.00,,,0.00,meteohub,2013-05-16 04:13:00,
2013-05-15 23:15:00,68.4,47.3,30.04,NE,45,5.0,7.0,47,0.00,,,0.00,meteohub,2013-05-16 04:15:00,
2013-05-15 23:20:00,68.4,47.3,30.03,East,90,7.0,8.0,47,0.00,,,0.00,meteohub,2013-05-16 04:20:00,
2013-05-15 23:25:00,68.2,47.1,30.03,ESE,113,5.0,8.0,47,0.00,,,0.00,meteohub,2013-05-16 04:25:00,
2013-05-15 23:30:00,68.2,47.1,30.03,NE,45,8.0,8.0,47,0.00,,,0.00,meteohub,2013-05-16 04:30:00,
2013-05-15 23:35:00,68.0,46.9,30.04,East,90,6.0,8.0,47,0.00,,,0.00,meteohub,2013-05-16 04:35:00,
2013-05-15 23:40:00,67.8,47.5,30.04,East,90,6.0,8.0,48,0.00,,,0.00,meteohub,2013-05-16 04:40:00,
2013-05-15 23:45:00,67.6,47.3,30.04,East,90,5.0,8.0,48,0.00,,,0.00,meteohub,2013-05-16 04:45:00,
2013-05-15 23:51:00,67.6,47.3,30.04,East,90,6.0,8.0,48,0.00,,,0.00,meteohub,2013-05-16 04:51:00,
2013-05-15 23:56:00,67.5,47.1,30.04,East,90,4.0,8.0,48,0.00,,,0.00,meteohub,2013-05-16 04:56:00,